User: anonymous   Login
Location: State Camp
(41.2367°N, 77.7828°W)
Time: 02:37:30
(UTC-05:00)
Language:

Lacrosse 5 - Orbit

View from above orbital plane
View from above orbital plane
View from above satellite
View from above satellite

Ground track
Ground track

The orbit data is extracted from the following two-line orbital elements,

1 28646U 05016A   14325.22501598 0.00000150  00000-0  35656-4 0    03
2 28646  57.0090  30.8026 0010602 165.6916 194.3083 14.53542647    00
Epoch (UTC): 21 November 2014 05:24:01
Eccentricity: 0.0010602
inclination: 57.0090°
perigee height: 706 km
apogee height: 721 km
right ascension of ascending node: 30.8026°
argument of perigee: 165.6916°
revolutions per day: 14.53542647
mean anomaly at epoch: 194.3083°
orbit number at epoch: 0

The dashed part of the orbit path shows where the satellite is in the earth's shadow,  

DLR